Volver al catálogo

STARLINK-30968

ActivoComunicacionesVLEO
NORAD 58511·PAYLOAD·🇺🇸 United States

Lanzado Dec 7, 2023 desde Cape Canaveral Space Force Station

Loading…

Próximos Pases (próximas 24 horas)

TLE

ActualizadoSource: CelesTrak SupGP

Época: Sep 15, 2026, 01:45 UTC

1 58511C 23191D   26258.07340278  .00051755  00000+0  18749-2 0  2581
2 58511  42.9998 114.2116 0001412 276.1627   3.8892 15.27546333    18

Sigue STARLINK-30968 en tiempo real con AllMySat

Download on the App Store